| time (UTC) | temp F | wind direction | speed MPH | gust MPH | rain 1hr in | rain 24hr in | rain mn in | humidity % | barometer mb |
| 20260506153005 | 58 | 120 | 1.0 | 6.0 | 0.07 | 0.08 | 0.08 | 92 | 1009.9 |
| 20260506151547 | 59 | 146 | 1.0 | 8.0 | 0.07 | 0.07 | 0.07 | 92 | 1010.0 |
| 20260506150008 | 59 | 141 | 2.0 | 8.0 | 0.04 | 0.04 | 0.04 | 91 | 1009.8 |
| 20260506144602 | 59 | 185 | 2.0 | 6.0 | 0.02 | 0.02 | 0.02 | 91 | 1009.9 |
| 20260506143027 | 60 | 114 | 1.0 | 8.0 | 0.01 | 0.01 | 0.01 | 89 | 1009.9 |
| 20260506141559 | 60 | 204 | 2.0 | 7.0 | 0.00 | 0.00 | 0.00 | 87 | 1009.9 |
| 20260506140028 | 61 | 155 | 0.0 | 10.0 | 0.00 | 0.00 | 0.00 | 85 | 1009.9 |
| 20260506134611 | 61 | 184 | 1.0 | 6.0 | 0.00 | 0.00 | 0.00 | 85 | 1010.0 |
| 20260506133042 | 61 | 185 | 0.0 | 5.0 | 0.00 | 0.00 | 0.00 | 84 | 1009.7 |
| 20260506131506 | 62 | 125 | 1.0 | 4.0 | 0.00 | 0.00 | 0.00 | 84 | 1010.0 |
| 20260506130034 | 62 | 110 | 2.0 | 12.0 | 0.00 | 0.00 | 0.00 | 81 | 1009.9 |
| 20260506124606 | 63 | 172 | 2.0 | 8.0 | 0.00 | 0.00 | 0.00 | 80 | 1010.2 |
| 20260506123035 | 63 | 290 | 3.0 | 10.0 | 0.00 | 0.00 | 0.00 | 78 | 1010.1 |
| 20260506121504 | 63 | 188 | 2.0 | 7.0 | 0.00 | 0.00 | 0.00 | 78 | 1010.0 |
| 20260506120045 | 63 | 115 | 2.0 | 10.0 | 0.00 | 0.00 | 0.00 | 78 | 1009.8 |
| 20260506114513 | 63 | 131 | 2.0 | 9.0 | 0.00 | 0.00 | 0.00 | 78 | 1009.6 |
| 20260506113052 | 63 | 0.0 | 0.0 | 0.00 | 0.00 | 0.00 | 78 | 1009.3 | |
| 20260506111528 | 63 | 0.0 | 0.0 | 0.00 | 0.00 | 0.00 | 78 | 1009.5 | |
| 20260506110009 | 63 | 0.0 | 0.0 | 0.00 | 0.00 | 0.00 | 77 | 1009.5 | |
| 20260506104549 | 63 | 0.0 | 0.0 | 0.00 | 0.00 | 0.00 | 77 | 1009.3 | |
| 20260506103023 | 63 | 0.0 | 0.0 | 0.00 | 0.00 | 0.00 | 76 | 1009.3 | |
| 20260506101603 | 63 | 0.0 | 0.0 | 0.00 | 0.00 | 0.00 | 76 | 1009.2 | |
| 20260506100038 | 64 | 0.0 | 0.0 | 0.00 | 0.00 | 0.00 | 75 | 1009.2 | |
| 20260506094506 | 64 | 0.0 | 0.0 | 0.00 | 0.00 | 0.00 | 75 | 1009.3 | |
| 20260506093049 | 64 | 0.0 | 0.0 | 0.00 | 0.00 | 0.00 | 75 | 1009.2 | |
| 20260506091517 | 64 | 0.0 | 0.0 | 0.00 | 0.00 | 0.00 | 75 | 1009.1 | |
| 20260506090100 | 64 | 0.0 | 0.0 | 0.00 | 0.00 | 0.00 | 74 | 1009.4 | |
| 20260506084527 | 65 | 172 | 2.0 | 6.0 | 0.00 | 0.00 | 0.00 | 74 | 1009.3 |
| 20260506083107 | 65 | 141 | 2.0 | 6.0 | 0.00 | 0.00 | 0.00 | 73 | 1009.3 |
| 20260506081538 | 65 | 103 | 3.0 | 9.0 | 0.00 | 0.00 | 0.00 | 73 | 1009.4 |
| 20260506073007 | 65 | 136 | 2.0 | 6.0 | 0.00 | 0.00 | 0.00 | 70 | 1009.6 |
| 20260506071551 | 65 | 169 | 2.0 | 7.0 | 0.00 | 0.00 | 0.00 | 69 | 1009.7 |
| 20260506061504 | 66 | 188 | 2.0 | 6.0 | 0.00 | 0.00 | 0.00 | 65 | 1010.3 |
| 20260506050124 | 67 | 155 | 0.0 | 5.0 | 0.00 | 0.00 | 0.00 | 61 | 1010.9 |
| 20260506044546 | 67 | 152 | 1.0 | 6.0 | 0.00 | 0.00 | 0.00 | 61 | 1010.8 |
| 20260506043007 | 66 | 160 | 0.0 | 4.0 | 0.00 | 0.00 | 0.00 | 61 | 1011.0 |
| 20260506041545 | 66 | 94 | 0.0 | 5.0 | 0.00 | 0.00 | 0.00 | 61 | 1010.9 |
| 20260506040012 | 66 | 200 | 0.0 | 7.0 | 0.00 | 0.00 | 0.00 | 61 | 1010.8 |
| 20260506034556 | 66 | 119 | 0.0 | 4.0 | 0.00 | 0.00 | 0.00 | 61 | 1010.8 |
| 20260506033025 | 66 | 152 | 0.0 | 4.0 | 0.00 | 0.00 | 0.00 | 60 | 1010.8 |
| 20260506031606 | 67 | 121 | 1.0 | 8.0 | 0.00 | 0.00 | 0.00 | 59 | 1010.7 |
| 20260506030030 | 67 | 194 | 1.0 | 7.0 | 0.00 | 0.00 | 0.00 | 58 | 1010.7 |
| 20260506024607 | 68 | 252 | 0.0 | 6.0 | 0.00 | 0.00 | 0.00 | 57 | 1010.8 |
| 20260506023037 | 68 | 206 | 1.0 | 6.0 | 0.00 | 0.00 | 0.00 | 56 | 1010.8 |
| 20260506021511 | 69 | 81 | 0.0 | 5.0 | 0.00 | 0.00 | 0.00 | 55 | 1010.8 |
| 20260506020054 | 69 | 168 | 1.0 | 6.0 | 0.00 | 0.00 | 0.00 | 54 | 1010.7 |
| 20260506014521 | 70 | 172 | 1.0 | 8.0 | 0.00 | 0.00 | 0.00 | 52 | 1010.5 |
| 20260506011535 | 70 | 166 | 1.0 | 6.0 | 0.00 | 0.00 | 0.00 | 51 | 1010.3 |
| 20260506010001 | 71 | 207 | 2.0 | 7.0 | 0.00 | 0.00 | 0.00 | 49 | 1010.0 |
| 20260506004539 | 71 | 152 | 0.0 | 5.0 | 0.00 | 0.00 | 0.00 | 48 | 1010.0 |
| 20260506003010 | 71 | 195 | 0.0 | 4.0 | 0.00 | 0.00 | 0.00 | 47 | 1009.8 |
| 20260506001603 | 73 | 113 | 0.0 | 5.0 | 0.00 | 0.00 | 0.00 | 45 | 1009.7 |
| 20260506000037 | 73 | 177 | 1.0 | 7.0 | 0.00 | 0.00 | 0.00 | 45 | 1009.6 |
| 20260505234502 | 74 | 200 | 1.0 | 5.0 | 0.00 | 0.00 | 0.00 | 44 | 1009.4 |
| 20260505233030 | 74 | 117 | 2.0 | 9.0 | 0.00 | 0.00 | 0.00 | 43 | 1009.3 |
| 20260505231609 | 74 | 203 | 2.0 | 7.0 | 0.00 | 0.00 | 0.00 | 42 | 1009.3 |
| 20260505230037 | 75 | 144 | 2.0 | 8.0 | 0.00 | 0.00 | 0.00 | 43 | 1009.3 |
| 20260505224505 | 75 | 199 | 1.0 | 11.0 | 0.00 | 0.00 | 0.00 | 42 | 1009.3 |
| 20260505223050 | 75 | 150 | 4.0 | 11.0 | 0.00 | 0.00 | 0.00 | 42 | 1009.3 |
| 20260505221516 | 76 | 150 | 2.0 | 11.0 | 0.00 | 0.00 | 0.00 | 40 | 1009.4 |
| 20260505220057 | 76 | 195 | 5.0 | 15.0 | 0.00 | 0.00 | 0.00 | 39 | 1009.1 |
| 20260505214531 | 77 | 158 | 5.0 | 13.0 | 0.00 | 0.00 | 0.00 | 38 | 1009.1 |
| 20260505213105 | 77 | 321 | 3.0 | 12.0 | 0.00 | 0.00 | 0.00 | 39 | 1009.1 |
| 20260505211537 | 77 | 13 | 5.0 | 13.0 | 0.00 | 0.00 | 0.00 | 39 | 1009.0 |
| 20260505210004 | 76 | 205 | 3.0 | 11.0 | 0.00 | 0.00 | 0.00 | 39 | 1009.2 |
| 20260505204545 | 77 | 94 | 4.0 | 16.0 | 0.00 | 0.00 | 0.00 | 40 | 1009.2 |
| 20260505203015 | 77 | 193 | 3.0 | 9.0 | 0.00 | 0.00 | 0.00 | 40 | 1009.1 |
| 20260505201557 | 77 | 200 | 4.0 | 11.0 | 0.00 | 0.00 | 0.00 | 40 | 1009.2 |
| 20260505200030 | 77 | 203 | 3.0 | 18.0 | 0.00 | 0.00 | 0.00 | 41 | 1009.2 |
| 20260505194605 | 77 | 186 | 5.0 | 12.0 | 0.00 | 0.00 | 0.00 | 41 | 1009.3 |
| 20260505193029 | 77 | 150 | 3.0 | 13.0 | 0.00 | 0.00 | 0.00 | 40 | 1009.6 |
| 20260505191613 | 77 | 295 | 3.0 | 20.0 | 0.00 | 0.00 | 0.00 | 40 | 1009.7 |
| 20260505190048 | 78 | 329 | 3.0 | 8.0 | 0.00 | 0.00 | 0.00 | 38 | 1009.9 |
| 20260505184513 | 78 | 207 | 4.0 | 9.0 | 0.00 | 0.00 | 0.00 | 39 | 1010.1 |
| 20260505183102 | 78 | 212 | 1.0 | 11.0 | 0.00 | 0.00 | 0.00 | 40 | 1010.3 |
| 20260505181513 | 78 | 139 | 3.0 | 8.0 | 0.00 | 0.00 | 0.00 | 39 | 1010.3 |
| 20260505180056 | 77 | 316 | 3.0 | 9.0 | 0.00 | 0.00 | 0.00 | 41 | 1010.5 |
| 20260505174517 | 77 | 201 | 2.0 | 8.0 | 0.00 | 0.00 | 0.00 | 46 | 1010.5 |
| 20260505173059 | 77 | 129 | 2.0 | 10.0 | 0.00 | 0.00 | 0.00 | 45 | 1010.7 |
| 20260505171527 | 78 | 158 | 1.0 | 9.0 | 0.00 | 0.00 | 0.00 | 49 | 1010.9 |
| 20260505170107 | 77 | 172 | 0.0 | 5.0 | 0.00 | 0.00 | 0.00 | 48 | 1010.8 |
| 20260505164537 | 78 | 155 | 1.0 | 10.0 | 0.00 | 0.00 | 0.00 | 44 | 1011.1 |
| 20260505163009 | 77 | 134 | 0.0 | 6.0 | 0.00 | 0.00 | 0.00 | 45 | 1011.1 |
| 20260505161543 | 77 | 151 | 0.0 | 7.0 | 0.00 | 0.00 | 0.00 | 45 | 1011.1 |